AAL2817 KRDU-KPHX

Flight info

Callsign AAL2817
Flight time N/A
Altitude 36000
Route SHPRD4 SHPRD VXV BNA BETIE ARG/N0463F380 J46 LUKKY RZC MMB KA36W CURLY ZUN EAGUL6
Aircraft B38M/M-SDE1FGHILORVWXY/HB1

Departure

Time 2026-05-01 13:43
Airport Raleigh-Durham International Airport (KRDU)

Arrival

Time N/A
Airport Phoenix Sky Harbor International Airport (KPHX)
Time Latitude Longitude Altitude Speed Heading
2026-05-01 13:31 35.87971 -78.79144 395 ft 0 kts 138°
2026-05-01 13:34 35.87972 -78.79144 395 ft 0 kts 138°
2026-05-01 13:35 35.87993 -78.79167 393 ft 2 kts 138°
2026-05-01 13:35 35.88005 -78.79179 392 ft 2 kts 165°
2026-05-01 13:35 35.88028 -78.79172 392 ft 1 kts 224°
2026-05-01 13:36 35.88033 -78.79166 392 ft 0 kts 226°
2026-05-01 13:38 35.88019 -78.79185 392 ft 8 kts 227°
2026-05-01 13:39 35.87982 -78.79262 390 ft 8 kts 276°
2026-05-01 13:39 35.87976 -78.79344 386 ft 15 kts 235°
2026-05-01 13:39 35.87877 -78.79469 383 ft 21 kts 225°
2026-05-01 13:39 35.87771 -78.79602 380 ft 22 kts 224°
2026-05-01 13:40 35.87660 -78.79739 377 ft 23 kts 224°
2026-05-01 13:40 35.87541 -78.79885 373 ft 25 kts 225°
2026-05-01 13:40 35.87421 -78.80033 367 ft 21 kts 223°
2026-05-01 13:40 35.87387 -78.80106 365 ft 8 kts 280°
2026-05-01 13:41 35.87424 -78.80158 362 ft 8 kts 319°
2026-05-01 13:41 35.87456 -78.80178 360 ft 2 kts 27°
2026-05-01 13:41 35.87458 -78.80176 360 ft 0 kts 43°
2026-05-01 13:42 35.87543 -78.80074 363 ft 45 kts 45°
2026-05-01 13:42 35.87911 -78.79625 375 ft 103 kts 45°
2026-05-01 13:42 35.88547 -78.78841 397 ft 152 kts 46°
2026-05-01 13:42 35.89362 -78.77851 654 ft 169 kts 45°
2026-05-01 13:43 35.90147 -78.76814 1303 ft 167 kts 49°
2026-05-01 13:43 35.90958 -78.75757 1761 ft 176 kts 46°
2026-05-01 13:43 35.91849 -78.74655 2229 ft 186 kts 45°
2026-05-01 13:43 35.92987 -78.73850 2604 ft 203 kts
2026-05-01 13:44 35.94428 -78.74207 2925 ft 228 kts 328°
2026-05-01 13:44 35.95456 -78.75770 3283 ft 251 kts 289°
2026-05-01 13:44 35.95567 -78.77937 3990 ft 258 kts 261°
2026-05-01 13:44 35.95183 -78.80104 4705 ft 264 kts 255°
2026-05-01 13:45 35.94694 -78.82295 5447 ft 268 kts 254°
2026-05-01 13:45 35.94192 -78.84477 6189 ft 271 kts 254°
2026-05-01 13:45 35.93677 -78.86711 6921 ft 273 kts 254°
2026-05-01 13:45 35.93156 -78.88964 7626 ft 276 kts 254°
2026-05-01 13:46 35.92630 -78.91238 8315 ft 279 kts 254°
2026-05-01 13:46 35.92094 -78.93548 8988 ft 281 kts 254°
2026-05-01 13:46 35.91553 -78.95877 9641 ft 284 kts 254°
2026-05-01 13:46 35.91009 -78.98219 10286 ft 287 kts 255°
2026-05-01 13:47 35.90437 -79.00514 11144 ft 279 kts 255°
2026-05-01 13:47 35.89921 -79.02644 12480 ft 254 kts 255°
2026-05-01 13:47 35.89536 -79.04820 12692 ft 271 kts 258°
2026-05-01 13:47 35.89176 -79.07217 12755 ft 293 kts 258°
2026-05-01 13:48 35.88793 -79.09751 12819 ft 313 kts 258°
2026-05-01 13:48 35.88355 -79.12424 13208 ft 321 kts 257°
2026-05-01 13:48 35.87869 -79.15118 13739 ft 324 kts 256°
2026-05-01 13:48 35.87325 -79.17815 14305 ft 326 kts 255°
2026-05-01 13:49 35.86713 -79.20480 14860 ft 328 kts 253°
2026-05-01 13:49 35.85994 -79.23186 15420 ft 329 kts 251°
2026-05-01 13:49 35.85187 -79.25796 15929 ft 332 kts 248°
2026-05-01 13:49 35.84294 -79.28428 16457 ft 333 kts 250°
2026-05-01 13:50 35.83642 -79.31175 16950 ft 335 kts 257°
2026-05-01 13:50 35.83259 -79.34010 17443 ft 337 kts 262°
2026-05-01 13:50 35.83007 -79.36871 17906 ft 340 kts 263°
2026-05-01 13:50 35.82794 -79.39764 18360 ft 342 kts 263°
2026-05-01 13:51 35.82582 -79.42698 18812 ft 343 kts 263°
2026-05-01 13:51 35.82370 -79.45607 19238 ft 345 kts 263°
2026-05-01 13:51 35.82150 -79.48566 19679 ft 347 kts 263°
2026-05-01 13:51 35.81925 -79.51518 20087 ft 348 kts 262°
2026-05-01 13:52 35.81589 -79.54470 20484 ft 350 kts 259°
2026-05-01 13:52 35.81136 -79.57383 20875 ft 351 kts 257°
2026-05-01 13:52 35.80637 -79.60336 21286 ft 352 kts 257°
2026-05-01 13:52 35.80134 -79.63274 21631 ft 354 kts 257°
2026-05-01 13:53 35.79626 -79.66240 22027 ft 355 kts 256°
2026-05-01 13:53 35.78600 -79.72226 22761 ft 358 kts 256°
2026-05-01 13:53 35.78083 -79.75246 23114 ft 360 kts 256°
2026-05-01 13:54 35.77571 -79.78236 23448 ft 362 kts 256°
2026-05-01 13:54 35.77051 -79.81271 23785 ft 363 kts 256°
2026-05-01 13:54 35.76528 -79.84325 24136 ft 364 kts 256°
2026-05-01 13:54 35.76010 -79.87347 24440 ft 366 kts 256°
2026-05-01 13:55 35.75480 -79.90437 24772 ft 367 kts 256°
2026-05-01 13:55 35.74955 -79.93495 25071 ft 369 kts 256°
2026-05-01 13:55 35.74421 -79.96600 25360 ft 371 kts 256°
2026-05-01 13:55 35.73884 -79.99717 25647 ft 372 kts 256°
2026-05-01 13:56 35.73352 -80.02802 25940 ft 373 kts 256°
2026-05-01 13:56 35.72809 -80.05947 26223 ft 375 kts 256°
2026-05-01 13:56 35.72267 -80.09080 26489 ft 376 kts 256°
2026-05-01 13:56 35.71726 -80.12206 26747 ft 378 kts 256°
2026-05-01 13:57 35.71180 -80.15354 27000 ft 379 kts 255°
2026-05-01 13:57 35.70632 -80.18520 27247 ft 380 kts 255°
2026-05-01 13:57 35.70079 -80.21705 27486 ft 382 kts 255°
2026-05-01 13:57 35.69522 -80.24911 27751 ft 382 kts 255°
2026-05-01 13:58 35.68963 -80.28117 28016 ft 383 kts 255°
2026-05-01 13:58 35.68402 -80.31325 28174 ft 386 kts 255°
2026-05-01 13:58 35.67841 -80.34523 28444 ft 386 kts 255°
2026-05-01 13:58 35.67280 -80.37721 28649 ft 387 kts 255°
2026-05-01 13:59 35.66727 -80.41000 28862 ft 389 kts 257°
2026-05-01 13:59 35.66330 -80.44297 29056 ft 392 kts 261°
2026-05-01 13:59 35.66164 -80.47620 29254 ft 395 kts 265°
2026-05-01 13:59 35.66182 -80.51016 29457 ft 398 kts 267°
2026-05-01 14:00 35.66316 -80.54391 29682 ft 399 kts 269°
2026-05-01 14:00 35.66514 -80.57795 29839 ft 401 kts 270°
2026-05-01 14:00 35.66755 -80.61253 30005 ft 403 kts 270°
2026-05-01 14:00 35.67015 -80.64641 30212 ft 404 kts 270°
2026-05-01 14:01 35.67292 -80.68108 30377 ft 405 kts 270°
2026-05-01 14:01 35.67571 -80.71558 30565 ft 406 kts 270°
2026-05-01 14:01 35.67851 -80.74951 30824 ft 405 kts 270°
2026-05-01 14:01 35.68140 -80.78401 31034 ft 405 kts 270°
2026-05-01 14:02 35.68427 -80.81827 31350 ft 402 kts 270°
2026-05-01 14:02 35.68715 -80.85238 31628 ft 401 kts 270°
2026-05-01 14:02 35.69006 -80.88670 31790 ft 402 kts 270°
2026-05-01 14:02 35.69288 -80.92027 32068 ft 399 kts 270°
2026-05-01 14:03 35.69572 -80.95417 32298 ft 399 kts 270°
2026-05-01 14:03 35.69860 -80.98817 32583 ft 396 kts 271°
2026-05-01 14:03 35.70143 -81.02174 32788 ft 396 kts 270°
2026-05-01 14:03 35.70425 -81.05527 32988 ft 395 kts 271°
2026-05-01 14:04 35.70708 -81.08888 33237 ft 393 kts 271°
2026-05-01 14:04 35.70991 -81.12183 33426 ft 392 kts 271°
2026-05-01 14:04 35.71269 -81.15540 33647 ft 391 kts 271°
2026-05-01 14:04 35.71539 -81.18823 33795 ft 391 kts 271°
2026-05-01 14:05 35.71817 -81.22156 34080 ft 388 kts 271°
2026-05-01 14:05 35.72080 -81.25405 34269 ft 387 kts 271°
2026-05-01 14:05 35.72349 -81.28705 34439 ft 386 kts 271°
2026-05-01 14:05 35.72621 -81.31976 34597 ft 386 kts 271°
2026-05-01 14:06 35.72893 -81.35252 34768 ft 386 kts 271°
2026-05-01 14:06 35.73159 -81.38518 34922 ft 385 kts 271°
2026-05-01 14:06 35.73425 -81.41818 35032 ft 386 kts 271°
2026-05-01 14:06 35.73687 -81.45093 35160 ft 386 kts 271°
2026-05-01 14:07 35.73949 -81.48373 35421 ft 383 kts 271°
2026-05-01 14:07 35.74209 -81.51614 35582 ft 382 kts 271°
2026-05-01 14:07 35.74465 -81.54860 35732 ft 381 kts 271°
2026-05-01 14:08 35.74974 -81.61335 35978 ft 381 kts 271°
2026-05-01 14:08 35.75232 -81.64593 36086 ft 382 kts 271°
2026-05-01 14:08 35.75487 -81.67829 36119 ft 384 kts 270°
2026-05-01 14:09 35.75993 -81.74373 36111 ft 386 kts 270°
2026-05-01 14:09 35.76502 -81.80952 36109 ft 387 kts 270°
2026-05-01 14:10 35.77001 -81.87545 36105 ft 387 kts 270°
2026-05-01 14:10 35.77502 -81.94112 36101 ft 385 kts 270°
2026-05-01 14:11 35.78009 -82.00674 36099 ft 386 kts 271°
2026-05-01 14:11 35.78747 -82.10493 36090 ft 385 kts 271°
2026-05-01 14:12 35.79239 -82.17041 36083 ft 385 kts 270°
2026-05-01 14:12 35.79716 -82.23600 36075 ft 384 kts 271°
2026-05-01 14:13 35.80195 -82.30133 36069 ft 385 kts 271°
2026-05-01 14:13 35.80680 -82.36727 36065 ft 388 kts 271°
2026-05-01 14:14 35.81152 -82.43285 36062 ft 386 kts 271°
2026-05-01 14:14 35.81628 -82.49851 36064 ft 386 kts 270°
2026-05-01 14:15 35.82093 -82.56444 36064 ft 386 kts 271°
2026-05-01 14:15 35.82557 -82.63007 36059 ft 388 kts 270°
2026-05-01 14:16 35.83020 -82.69621 36050 ft 386 kts 270°
2026-05-01 14:16 35.83478 -82.76179 36044 ft 384 kts 270°
2026-05-01 14:17 35.83923 -82.82713 36037 ft 384 kts 270°
2026-05-01 14:17 35.84369 -82.89249 36036 ft 383 kts 273°
2026-05-01 14:18 35.84813 -82.95781 36036 ft 384 kts 274°
2026-05-01 14:18 35.85260 -83.02361 36036 ft 388 kts 276°
2026-05-01 14:19 35.85710 -83.08999 36038 ft 392 kts 276°
2026-05-01 14:19 35.86157 -83.15691 36038 ft 391 kts 276°
2026-05-01 14:20 35.86816 -83.25691 36046 ft 390 kts 276°
2026-05-01 14:21 35.87244 -83.32305 36046 ft 390 kts 276°
2026-05-01 14:21 35.87671 -83.38972 36047 ft 391 kts 276°
2026-05-01 14:22 35.88317 -83.49005 36044 ft 394 kts 277°
2026-05-01 14:22 35.88745 -83.55727 36045 ft 394 kts 276°
2026-05-01 14:23 35.89159 -83.62444 36043 ft 391 kts 276°
2026-05-01 14:23 35.89566 -83.69062 36046 ft 389 kts 276°
2026-05-01 14:24 35.89965 -83.75744 36045 ft 390 kts 276°
2026-05-01 14:24 35.90366 -83.82406 36043 ft 390 kts 276°
2026-05-01 14:25 35.90768 -83.89049 36043 ft 392 kts 276°
2026-05-01 14:25 35.91226 -83.95753 36042 ft 391 kts 277°
2026-05-01 14:26 35.92084 -84.05706 36041 ft 391 kts 277°
2026-05-01 14:27 35.92693 -84.12376 36039 ft 391 kts 277°
2026-05-01 14:27 35.93303 -84.19002 36037 ft 391 kts 278°
2026-05-01 14:28 35.94231 -84.29011 36040 ft 393 kts 278°
2026-05-01 14:28 35.94847 -84.35712 36043 ft 393 kts 278°
2026-05-01 14:29 35.95461 -84.42389 36048 ft 390 kts 278°
2026-05-01 14:30 35.96666 -84.55605 36054 ft 389 kts 278°
2026-05-01 14:31 35.97562 -84.65565 36056 ft 390 kts 277°
2026-05-01 14:31 35.98148 -84.72223 36056 ft 392 kts 277°
2026-05-01 14:32 35.98734 -84.78917 36054 ft 391 kts 277°
2026-05-01 14:32 35.99318 -84.85543 36054 ft 390 kts 277°
2026-05-01 14:33 35.99899 -84.92188 36055 ft 391 kts 277°
2026-05-01 14:33 36.00481 -84.98862 36056 ft 393 kts 278°
2026-05-01 14:34 36.01059 -85.05539 36051 ft 387 kts 278°
2026-05-01 14:34 36.01615 -85.12048 36055 ft 381 kts 279°
2026-05-01 14:35 36.02171 -85.18556 36056 ft 382 kts 279°
2026-05-01 14:35 36.02724 -85.25047 36056 ft 382 kts 279°
2026-05-01 14:36 36.03275 -85.31606 36059 ft 384 kts 279°
2026-05-01 14:36 36.03818 -85.38108 36061 ft 382 kts 280°
2026-05-01 14:37 36.04360 -85.44632 36062 ft 382 kts 280°
2026-05-01 14:37 36.04899 -85.51150 36063 ft 382 kts 280°
2026-05-01 14:38 36.05434 -85.57665 36064 ft 383 kts 280°
2026-05-01 14:38 36.05968 -85.64208 36062 ft 382 kts 279°
2026-05-01 14:39 36.06485 -85.70702 36063 ft 381 kts 279°
2026-05-01 14:39 36.07000 -85.77220 36065 ft 382 kts 279°
2026-05-01 14:40 36.07520 -85.83714 36066 ft 383 kts 279°
2026-05-01 14:40 36.08040 -85.90279 36062 ft 381 kts 279°
2026-05-01 14:41 36.08546 -85.96744 36064 ft 380 kts 279°
2026-05-01 14:41 36.09056 -86.03248 36063 ft 380 kts 279°
2026-05-01 14:42 36.09561 -86.09750 36065 ft 381 kts 279°
2026-05-01 14:42 36.10065 -86.16273 36064 ft 382 kts 279°
2026-05-01 14:43 36.10560 -86.22772 36066 ft 382 kts 279°
2026-05-01 14:43 36.11052 -86.29312 36073 ft 381 kts 279°
2026-05-01 14:44 36.11540 -86.35809 36078 ft 382 kts 279°
2026-05-01 14:44 36.12271 -86.45612 36085 ft 381 kts 279°
2026-05-01 14:45 36.12995 -86.55363 36085 ft 381 kts 279°
2026-05-01 14:46 36.13472 -86.61863 36086 ft 381 kts 279°
2026-05-01 14:46 36.13781 -86.71712 36085 ft 384 kts 274°
2026-05-01 14:47 36.13705 -86.78293 36083 ft 386 kts 274°
2026-05-01 14:48 36.13622 -86.88212 36084 ft 385 kts 274°
2026-05-01 14:48 36.13553 -86.98125 36080 ft 383 kts 273°
2026-05-01 14:49 36.13458 -87.11186 36081 ft 380 kts 272°
2026-05-01 14:50 36.13352 -87.24211 36084 ft 378 kts 272°
2026-05-01 14:51 36.13262 -87.33920 36091 ft 379 kts 272°
2026-05-01 14:52 36.13173 -87.43689 36096 ft 379 kts 273°
2026-05-01 14:53 36.13068 -87.53419 36098 ft 378 kts 272°
2026-05-01 14:53 36.13000 -87.59943 36100 ft 378 kts 272°
2026-05-01 14:54 36.12924 -87.66428 36101 ft 377 kts 272°
2026-05-01 14:54 36.12841 -87.72875 36101 ft 378 kts 272°
2026-05-01 14:55 36.12751 -87.79375 36101 ft 378 kts 272°
2026-05-01 14:55 36.12663 -87.85855 36102 ft 378 kts 272°
2026-05-01 14:56 36.12581 -87.92337 36103 ft 378 kts 272°
2026-05-01 14:56 36.12590 -87.98803 36107 ft 377 kts 273°
2026-05-01 14:57 36.12628 -88.05310 36110 ft 378 kts 273°
2026-05-01 14:57 36.12695 -88.15055 36107 ft 378 kts 273°
2026-05-01 14:58 36.12736 -88.21531 36105 ft 378 kts 273°
2026-05-01 14:58 36.12775 -88.27986 36102 ft 379 kts 273°
2026-05-01 14:59 36.12808 -88.34517 36101 ft 379 kts 273°
2026-05-01 14:59 36.12842 -88.40999 36100 ft 379 kts 273°
2026-05-01 15:00 36.12882 -88.50761 36101 ft 379 kts 273°
2026-05-01 15:01 36.12903 -88.57258 36100 ft 378 kts 274°
2026-05-01 15:01 36.12926 -88.63772 36102 ft 379 kts 273°
2026-05-01 15:02 36.12940 -88.70286 36104 ft 380 kts 273°
2026-05-01 15:02 36.12940 -88.76806 36105 ft 379 kts 273°
2026-05-01 15:03 36.12946 -88.83305 36108 ft 378 kts 273°
2026-05-01 15:03 36.12946 -88.89756 36109 ft 378 kts 273°
2026-05-01 15:04 36.12949 -88.96264 36111 ft 380 kts 273°
2026-05-01 15:04 36.12947 -89.02776 36112 ft 380 kts 273°
2026-05-01 15:05 36.12938 -89.09307 36115 ft 380 kts 272°
2026-05-01 15:05 36.12928 -89.15810 36119 ft 380 kts 273°
2026-05-01 15:06 36.12914 -89.22341 36123 ft 380 kts 273°
2026-05-01 15:06 36.12898 -89.28841 36127 ft 380 kts 273°
2026-05-01 15:07 36.12878 -89.35365 36128 ft 380 kts 273°
2026-05-01 15:07 36.12855 -89.41885 36127 ft 380 kts 273°
2026-05-01 15:08 36.12829 -89.48396 36128 ft 380 kts 273°
2026-05-01 15:08 36.12800 -89.54906 36137 ft 379 kts 272°
2026-05-01 15:09 36.12766 -89.61414 36143 ft 379 kts 273°
2026-05-01 15:09 36.12727 -89.67956 36141 ft 380 kts 272°
2026-05-01 15:10 36.12679 -89.74483 36137 ft 380 kts 272°
2026-05-01 15:10 36.12606 -89.84224 36137 ft 379 kts 272°
2026-05-01 15:11 36.12528 -89.93964 36137 ft 379 kts 272°
2026-05-01 15:12 36.12473 -90.00507 36137 ft 380 kts 272°
2026-05-01 15:12 36.12384 -90.10284 36137 ft 380 kts 272°
2026-05-01 15:14 36.12218 -90.26550 36137 ft 379 kts 272°
2026-05-01 15:14 36.12108 -90.36303 36145 ft 380 kts 272°
2026-05-01 15:15 36.11948 -90.49353 36155 ft 380 kts 272°
2026-05-01 15:16 36.11775 -90.62362 36155 ft 379 kts 272°
2026-05-01 15:18 36.11528 -90.78655 36155 ft 380 kts 272°
2026-05-01 15:19 36.11318 -90.91691 36155 ft 380 kts 272°
2026-05-01 15:19 36.11303 -91.01448 36155 ft 379 kts 275°
2026-05-01 15:20 36.11622 -91.11173 36155 ft 377 kts 276°
2026-05-01 15:21 36.11854 -91.17632 36155 ft 376 kts 276°
2026-05-01 15:21 36.12088 -91.24058 36157 ft 376 kts 277°
2026-05-01 15:22 36.12437 -91.33717 36164 ft 375 kts 277°
2026-05-01 15:22 36.12666 -91.40131 36170 ft 376 kts 277°
2026-05-01 15:23 36.12893 -91.46588 36173 ft 376 kts 277°
2026-05-01 15:23 36.13117 -91.53042 36173 ft 375 kts 276°
2026-05-01 15:24 36.13404 -91.59473 36174 ft 374 kts 278°
2026-05-01 15:24 36.13760 -91.65859 36174 ft 374 kts 277°
2026-05-01 15:25 36.14114 -91.72312 36173 ft 375 kts 277°
2026-05-01 15:25 36.14460 -91.78691 36173 ft 375 kts 277°
2026-05-01 15:26 36.14806 -91.85118 36173 ft 375 kts 277°
2026-05-01 15:26 36.15149 -91.91528 36174 ft 374 kts 277°
2026-05-01 15:27 36.15491 -91.97973 36172 ft 375 kts 277°
2026-05-01 15:28 36.15995 -92.07586 36168 ft 375 kts 277°
2026-05-01 15:28 36.16329 -92.14036 36166 ft 375 kts 277°
2026-05-01 15:29 36.16820 -92.23640 36164 ft 375 kts 277°
2026-05-01 15:30 36.17466 -92.36505 36164 ft 375 kts 277°
2026-05-01 15:31 36.18407 -92.55771 36170 ft 375 kts 277°
2026-05-01 15:32 36.19015 -92.68617 36172 ft 376 kts 277°
2026-05-01 15:34 36.19894 -92.87980 36165 ft 375 kts 277°